| time (UTC) | temp F | wind direction | speed MPH | gust MPH | rain 1hr in | rain 24hr in | rain mn in | humidity % | barometer mb |
| 20260906141404 | 71 | 144 | 2.0 | 6.0 | 0.00 | 0.00 | 0.00 | 72 | 1019.3 |
| 20260906140905 | 71 | 152 | 3.0 | 9.0 | 0.00 | 0.00 | 0.00 | 72 | 1019.3 |
| 20260906140404 | 71 | 130 | 3.0 | 7.0 | 0.00 | 0.00 | 0.00 | 71 | 1019.4 |
| 20260906135904 | 71 | 123 | 6.0 | 9.0 | 0.00 | 0.00 | 0.00 | 70 | 1019.4 |
| 20260906134905 | 72 | 120 | 5.0 | 8.0 | 0.00 | 0.00 | 0.00 | 70 | 1019.4 |
| 20260906134404 | 72 | 90 | 3.0 | 9.0 | 0.00 | 0.00 | 0.00 | 69 | 1019.4 |
| 20260906133904 | 73 | 102 | 4.0 | 7.0 | 0.00 | 0.00 | 0.00 | 68 | 1019.4 |
| 20260906133404 | 73 | 84 | 4.0 | 8.0 | 0.00 | 0.00 | 0.00 | 69 | 1019.4 |
| 20260906132404 | 73 | 120 | 6.0 | 12.0 | 0.00 | 0.00 | 0.00 | 67 | 1019.5 |
| 20260906131905 | 73 | 122 | 5.0 | 9.0 | 0.00 | 0.00 | 0.00 | 65 | 1019.5 |
| 20260906130404 | 77 | 96 | 4.0 | 9.0 | 0.00 | 0.00 | 0.00 | 60 | 1019.5 |
| 20260906125905 | 78 | 206 | 4.0 | 8.0 | 0.00 | 0.00 | 0.00 | 56 | 1019.5 |
| 20260906125404 | 78 | 137 | 4.0 | 8.0 | 0.00 | 0.00 | 0.00 | 47 | 1019.5 |
| 20260906124904 | 79 | 201 | 6.0 | 10.0 | 0.00 | 0.00 | 0.00 | 45 | 1019.4 |
| 20260906124404 | 80 | 177 | 5.0 | 12.0 | 0.00 | 0.00 | 0.00 | 45 | 1019.5 |
| 20260906123404 | 79 | 152 | 3.0 | 8.0 | 0.00 | 0.00 | 0.00 | 46 | 1020.1 |
| 20260906122904 | 79 | 185 | 5.0 | 9.0 | 0.00 | 0.00 | 0.00 | 48 | 1020.1 |
| 20260906121904 | 79 | 139 | 3.0 | 8.0 | 0.00 | 0.00 | 0.00 | 48 | 1020.1 |
| 20260906121404 | 78 | 170 | 4.0 | 10.0 | 0.00 | 0.00 | 0.00 | 51 | 1020.1 |
| 20260906120904 | 79 | 151 | 4.0 | 8.0 | 0.00 | 0.00 | 0.00 | 51 | 1020.1 |
| 20260906120404 | 78 | 224 | 5.0 | 8.0 | 0.00 | 0.00 | 0.00 | 51 | 1020.1 |
| 20260906115904 | 77 | 176 | 6.0 | 15.0 | 0.00 | 0.00 | 0.00 | 52 | 1020.1 |
| 20260906115404 | 77 | 180 | 6.0 | 10.0 | 0.00 | 0.00 | 0.00 | 53 | 1020.1 |
| 20260906114904 | 77 | 124 | 4.0 | 8.0 | 0.00 | 0.00 | 0.00 | 56 | 1020.1 |
| 20260906114404 | 76 | 143 | 4.0 | 8.0 | 0.00 | 0.00 | 0.00 | 59 | 1020.1 |
| 20260906113905 | 75 | 128 | 3.0 | 7.0 | 0.00 | 0.00 | 0.00 | 60 | 1020.4 |
| 20260906113405 | 76 | 69 | 3.0 | 7.0 | 0.00 | 0.00 | 0.00 | 59 | 1020.4 |
| 20260906112905 | 76 | 173 | 3.0 | 6.0 | 0.00 | 0.00 | 0.00 | 59 | 1020.4 |
| 20260906112404 | 75 | 172 | 4.0 | 12.0 | 0.00 | 0.00 | 0.00 | 61 | 1020.4 |
| 20260906111904 | 75 | 101 | 5.0 | 8.0 | 0.00 | 0.00 | 0.00 | 61 | 1020.4 |
| 20260906111404 | 75 | 104 | 1.0 | 6.0 | 0.00 | 0.00 | 0.00 | 62 | 1021.2 |
| 20260906110904 | 76 | 183 | 5.0 | 9.0 | 0.00 | 0.00 | 0.00 | 62 | 1021.2 |
| 20260906105404 | 74 | 161 | 4.0 | 7.0 | 0.00 | 0.00 | 0.00 | 64 | 1021.2 |
| 20260906104904 | 74 | 150 | 3.0 | 8.0 | 0.00 | 0.00 | 0.00 | 66 | 1021.2 |
| 20260906104404 | 73 | 74 | 5.0 | 8.0 | 0.00 | 0.00 | 0.00 | 64 | 1021.2 |
| 20260906103904 | 74 | 175 | 3.0 | 8.0 | 0.00 | 0.00 | 0.00 | 65 | 1021.2 |
| 20260906103405 | 73 | 171 | 3.0 | 10.0 | 0.00 | 0.00 | 0.00 | 66 | 1021.2 |
| 20260906102904 | 73 | 199 | 6.0 | 10.0 | 0.00 | 0.00 | 0.00 | 64 | 1021.2 |
| 20260906102404 | 73 | 174 | 6.0 | 10.0 | 0.00 | 0.00 | 0.00 | 65 | 1021.2 |
| 20260906101904 | 73 | 142 | 4.0 | 9.0 | 0.00 | 0.00 | 0.00 | 67 | 1021.2 |
| 20260906101404 | 72 | 194 | 5.0 | 12.0 | 0.00 | 0.00 | 0.00 | 66 | 1021.2 |
| 20260906100404 | 72 | 205 | 6.0 | 13.0 | 0.00 | 0.00 | 0.00 | 67 | 1021.2 |
| 20260906095404 | 72 | 118 | 3.0 | 9.0 | 0.00 | 0.00 | 0.00 | 70 | 1021.2 |
| 20260906094904 | 71 | 144 | 5.0 | 12.0 | 0.00 | 0.00 | 0.00 | 69 | 1021.2 |
| 20260906094405 | 70 | 170 | 5.0 | 12.0 | 0.00 | 0.00 | 0.00 | 71 | 1021.1 |
| 20260906093904 | 71 | 121 | 6.0 | 9.0 | 0.00 | 0.00 | 0.00 | 69 | 1021.1 |
| 20260906092904 | 71 | 131 | 3.0 | 10.0 | 0.00 | 0.00 | 0.00 | 70 | 1021.2 |
| 20260906092404 | 71 | 135 | 7.0 | 13.0 | 0.00 | 0.00 | 0.00 | 69 | 1021.2 |
| 20260906091404 | 70 | 141 | 3.0 | 14.0 | 0.00 | 0.00 | 0.00 | 71 | 1021.2 |
| 20260906090904 | 70 | 129 | 2.0 | 9.0 | 0.00 | 0.00 | 0.00 | 73 | 1021.2 |
| 20260906090405 | 70 | 88 | 5.0 | 9.0 | 0.00 | 0.00 | 0.00 | 73 | 1021.2 |
| 20260906085904 | 70 | 111 | 2.0 | 7.0 | 0.00 | 0.00 | 0.00 | 74 | 1021.2 |
| 20260906085404 | 69 | 119 | 5.0 | 9.0 | 0.00 | 0.00 | 0.00 | 74 | 1021.2 |
| 20260906084404 | 69 | 90 | 6.0 | 12.0 | 0.00 | 0.00 | 0.00 | 75 | 1021.5 |
| 20260906082905 | 68 | 133 | 4.0 | 12.0 | 0.00 | 0.00 | 0.00 | 74 | 1021.5 |
| 20260906081904 | 67 | 131 | 6.0 | 13.0 | 0.00 | 0.00 | 0.00 | 75 | 1021.3 |
| 20260906081404 | 67 | 137 | 5.0 | 12.0 | 0.00 | 0.00 | 0.00 | 76 | 1021.3 |
| 20260906080904 | 67 | 110 | 7.0 | 14.0 | 0.00 | 0.00 | 0.00 | 77 | 1021.5 |
| 20260906075404 | 66 | 111 | 2.0 | 9.0 | 0.00 | 0.00 | 0.00 | 82 | 1021.7 |
| 20260906074904 | 65 | 120 | 4.0 | 7.0 | 0.00 | 0.00 | 0.00 | 84 | 1021.7 |
| 20260906073905 | 64 | 124 | 4.0 | 9.0 | 0.00 | 0.00 | 0.00 | 89 | 1021.7 |
| 20260906073404 | 63 | 115 | 4.0 | 8.0 | 0.00 | 0.00 | 0.00 | 91 | 1021.7 |
| 20260906072904 | 62 | 138 | 2.0 | 5.0 | 0.00 | 0.00 | 0.00 | 92 | 1021.7 |
| 20260906072404 | 62 | 149 | 2.0 | 5.0 | 0.00 | 0.00 | 0.00 | 93 | 1022.2 |
| 20260906071904 | 60 | 111 | 3.0 | 6.0 | 0.00 | 0.00 | 0.00 | 93 | 1022.2 |
| 20260906071404 | 60 | 98 | 1.0 | 6.0 | 0.00 | 0.00 | 0.00 | 94 | 1022.2 |
| 20260906070904 | 58 | 92 | 1.0 | 5.0 | 0.00 | 0.00 | 0.00 | 93 | 1022.2 |
| 20260906070405 | 58 | 90 | 0.0 | 0.0 | 0.00 | 0.00 | 0.00 | 93 | 1022.2 |
| 20260906065904 | 57 | 96 | 0.0 | 0.0 | 0.00 | 0.00 | 0.00 | 94 | 1022.2 |
| 20260906065404 | 56 | 123 | 0.0 | 0.0 | 0.00 | 0.00 | 0.00 | 93 | 1022.2 |
| 20260906064904 | 55 | 123 | 0.0 | 0.0 | 0.00 | 0.00 | 0.00 | 93 | 1022.2 |
| 20260906064404 | 55 | 123 | 0.0 | 0.0 | 0.00 | 0.00 | 0.00 | 93 | 1022.2 |
| 20260906063904 | 55 | 123 | 0.0 | 0.0 | 0.00 | 0.00 | 0.00 | 93 | 1022.2 |
| 20260906063404 | 54 | 123 | 0.0 | 1.0 | 0.00 | 0.00 | 0.00 | 93 | 1022.2 |
| 20260906062404 | 54 | 123 | 0.0 | 0.0 | 0.00 | 0.00 | 0.00 | 93 | 1022.2 |
| 20260906061404 | 54 | 123 | 0.0 | 0.0 | 0.00 | 0.00 | 0.00 | 92 | 1022.4 |
| 20260906060904 | 54 | 123 | 0.0 | 0.0 | 0.00 | 0.00 | 0.00 | 92 | 1022.4 |
| 20260906060404 | 53 | 123 | 0.0 | 1.0 | 0.00 | 0.00 | 0.00 | 92 | 1022.4 |
| 20260906055904 | 54 | 113 | 0.0 | 0.0 | 0.00 | 0.00 | 0.00 | 92 | 1022.5 |
| 20260906054904 | 54 | 113 | 0.0 | 0.0 | 0.00 | 0.00 | 0.00 | 92 | 1022.4 |
| 20260906053905 | 54 | 113 | 0.0 | 1.0 | 0.00 | 0.00 | 0.00 | 92 | 1022.5 |
| 20260906053404 | 54 | 123 | 0.0 | 1.0 | 0.00 | 0.00 | 0.00 | 92 | 1022.5 |
| 20260906051904 | 54 | 121 | 0.0 | 0.0 | 0.00 | 0.00 | 0.00 | 92 | 1022.5 |
| 20260906051404 | 54 | 121 | 0.0 | 0.0 | 0.00 | 0.00 | 0.00 | 92 | 1022.5 |
| 20260906050404 | 54 | 121 | 0.0 | 0.0 | 0.00 | 0.00 | 0.00 | 91 | 1022.6 |
| 20260906045904 | 54 | 121 | 0.0 | 0.0 | 0.00 | 0.00 | 0.00 | 91 | 1022.6 |
| 20260906044404 | 54 | 121 | 0.0 | 0.0 | 0.00 | 0.00 | 0.00 | 91 | 1022.7 |
| 20260906043905 | 54 | 121 | 0.0 | 0.0 | 0.00 | 0.00 | 0.00 | 91 | 1022.7 |
| 20260906043404 | 54 | 121 | 0.0 | 0.0 | 0.00 | 0.00 | 0.00 | 91 | 1022.7 |
| 20260906042905 | 54 | 121 | 0.0 | 0.0 | 0.00 | 0.00 | 0.00 | 91 | 1022.7 |
| 20260906041404 | 55 | 121 | 0.0 | 0.0 | 0.00 | 0.00 | 0.00 | 91 | 1022.8 |
| 20260906040904 | 55 | 121 | 0.0 | 0.0 | 0.00 | 0.00 | 0.00 | 91 | 1022.8 |
| 20260906040404 | 55 | 121 | 0.0 | 0.0 | 0.00 | 0.00 | 0.00 | 91 | 1022.8 |
| 20260906035405 | 55 | 121 | 0.0 | 0.0 | 0.00 | 0.00 | 0.00 | 91 | 1023.1 |
| 20260906034904 | 55 | 121 | 0.0 | 0.0 | 0.00 | 0.00 | 0.00 | 91 | 1023.1 |
| 20260906034404 | 55 | 121 | 0.0 | 0.0 | 0.00 | 0.00 | 0.00 | 91 | 1023.1 |
| 20260906033904 | 55 | 121 | 0.0 | 0.0 | 0.00 | 0.00 | 0.00 | 91 | 1023.1 |
| 20260906033404 | 55 | 121 | 0.0 | 0.0 | 0.00 | 0.00 | 0.00 | 91 | 1023.1 |
| 20260906032904 | 55 | 124 | 0.0 | 0.0 | 0.00 | 0.00 | 0.00 | 91 | 1023.7 |
| 20260906032404 | 55 | 124 | 0.0 | 0.0 | 0.00 | 0.00 | 0.00 | 91 | 1023.7 |
| 20260906031904 | 55 | 125 | 0.0 | 2.0 | 0.00 | 0.00 | 0.00 | 91 | 1023.7 |
| 20260906031404 | 55 | 125 | 1.0 | 2.0 | 0.00 | 0.00 | 0.00 | 91 | 1023.7 |
| 20260906030904 | 55 | 125 | 0.0 | 0.0 | 0.00 | 0.00 | 0.00 | 91 | 1023.7 |
| 20260906030404 | 56 | 125 | 0.0 | 0.0 | 0.00 | 0.00 | 0.00 | 91 | 1023.8 |
| 20260906025404 | 56 | 125 | 0.0 | 1.0 | 0.00 | 0.00 | 0.00 | 91 | 1023.8 |
| 20260906024904 | 56 | 125 | 0.0 | 1.0 | 0.00 | 0.00 | 0.00 | 91 | 1023.8 |
| 20260906024405 | 56 | 125 | 0.0 | 0.0 | 0.00 | 0.00 | 0.00 | 91 | 1023.8 |
| 20260906023904 | 55 | 125 | 1.0 | 2.0 | 0.00 | 0.00 | 0.00 | 91 | 1023.8 |
| 20260906022904 | 55 | 123 | 0.0 | 0.0 | 0.00 | 0.00 | 0.00 | 91 | 1023.8 |
| 20260906022404 | 55 | 123 | 0.0 | 0.0 | 0.00 | 0.00 | 0.00 | 91 | 1023.8 |
| 20260906021904 | 55 | 123 | 0.0 | 0.0 | 0.00 | 0.00 | 0.00 | 91 | 1023.8 |
| 20260906021405 | 55 | 123 | 0.0 | 0.0 | 0.00 | 0.00 | 0.00 | 91 | 1023.8 |
| 20260906020904 | 55 | 123 | 0.0 | 0.0 | 0.00 | 0.00 | 0.00 | 91 | 1023.8 |
| 20260906020404 | 55 | 123 | 0.0 | 0.0 | 0.00 | 0.00 | 0.00 | 91 | 1023.8 |
| 20260906015904 | 55 | 123 | 0.0 | 0.0 | 0.00 | 0.00 | 0.00 | 91 | 1023.9 |
| 20260906015405 | 55 | 123 | 0.0 | 0.0 | 0.00 | 0.00 | 0.00 | 91 | 1023.9 |
| 20260906014404 | 55 | 123 | 0.0 | 0.0 | 0.00 | 0.00 | 0.00 | 91 | 1024.1 |
| 20260906013904 | 55 | 123 | 0.0 | 0.0 | 0.00 | 0.00 | 0.00 | 91 | 1024.1 |
| 20260906013404 | 55 | 123 | 0.0 | 0.0 | 0.00 | 0.00 | 0.00 | 91 | 1024.3 |
| 20260906012904 | 55 | 123 | 0.0 | 1.0 | 0.00 | 0.00 | 0.00 | 91 | 1024.3 |
| 20260906011904 | 54 | 93 | 0.0 | 0.0 | 0.00 | 0.00 | 0.00 | 91 | 1024.2 |
| 20260906011404 | 54 | 93 | 0.0 | 0.0 | 0.00 | 0.00 | 0.00 | 91 | 1024.2 |
| 20260906010904 | 54 | 93 | 0.0 | 0.0 | 0.00 | 0.00 | 0.00 | 91 | 1024.2 |
| 20260906005904 | 54 | 93 | 0.0 | 0.0 | 0.00 | 0.00 | 0.00 | 91 | 1025.0 |
| 20260906004904 | 54 | 93 | 0.0 | 0.0 | 0.00 | 0.00 | 0.00 | 91 | 1025.0 |
| 20260906004404 | 54 | 125 | 0.0 | 0.0 | 0.00 | 0.00 | 0.00 | 91 | 1025.0 |
| 20260906003904 | 54 | 152 | 0.0 | 0.0 | 0.00 | 0.00 | 0.00 | 91 | 1025.0 |
| 20260906003404 | 54 | 152 | 0.0 | 0.0 | 0.00 | 0.00 | 0.00 | 91 | 1025.0 |
| 20260906002904 | 54 | 152 | 0.0 | 0.0 | 0.00 | 0.00 | 0.00 | 91 | 1025.0 |
| 20260906002404 | 54 | 152 | 0.0 | 0.0 | 0.00 | 0.00 | 0.00 | 91 | 1025.0 |
| 20260906001904 | 54 | 152 | 0.0 | 0.0 | 0.00 | 0.00 | 0.00 | 91 | 1025.0 |
| 20260906001404 | 53 | 152 | 0.0 | 0.0 | 0.00 | 0.00 | 0.00 | 91 | 1025.0 |
| 20260906000904 | 53 | 152 | 0.0 | 0.0 | 0.00 | 0.00 | 0.00 | 90 | 1025.0 |
| 20260906000405 | 53 | 152 | 0.0 | 0.0 | 0.00 | 0.00 | 0.00 | 90 | 1025.0 |
| 20260905235904 | 53 | 161 | 0.0 | 0.0 | 0.00 | 0.00 | 0.00 | 90 | 1025.0 |
| 20260905234904 | 53 | 185 | 0.0 | 0.0 | 0.00 | 0.00 | 0.00 | 90 | 1025.0 |
| 20260905234404 | 53 | 185 | 0.0 | 0.0 | 0.00 | 0.00 | 0.00 | 90 | 1025.0 |
| 20260905233904 | 53 | 185 | 0.0 | 0.0 | 0.00 | 0.00 | 0.00 | 90 | 1025.0 |
| 20260905233404 | 53 | 185 | 0.0 | 0.0 | 0.00 | 0.00 | 0.00 | 90 | 1025.0 |
| 20260905232904 | 53 | 185 | 0.0 | 0.0 | 0.00 | 0.00 | 0.00 | 90 | 1025.0 |
| 20260905232404 | 54 | 185 | 0.0 | 0.0 | 0.00 | 0.00 | 0.00 | 90 | 1025.0 |
| 20260905231904 | 54 | 185 | 0.0 | 0.0 | 0.00 | 0.00 | 0.00 | 90 | 1025.0 |
| 20260905231404 | 54 | 185 | 0.0 | 0.0 | 0.00 | 0.00 | 0.00 | 90 | 1025.0 |
| 20260905230904 | 54 | 185 | 0.0 | 0.0 | 0.00 | 0.00 | 0.00 | 89 | 1025.0 |
| 20260905225904 | 54 | 185 | 0.0 | 0.0 | 0.00 | 0.00 | 0.00 | 89 | 1024.9 |
| 20260905225404 | 54 | 185 | 0.0 | 0.0 | 0.00 | 0.00 | 0.00 | 89 | 1024.9 |
| 20260905224904 | 54 | 185 | 0.0 | 0.0 | 0.00 | 0.00 | 0.00 | 89 | 1024.9 |
| 20260905224404 | 54 | 185 | 0.0 | 0.0 | 0.00 | 0.00 | 0.00 | 89 | 1024.8 |
| 20260905223904 | 54 | 185 | 0.0 | 0.0 | 0.00 | 0.00 | 0.00 | 88 | 1024.8 |
| 20260905223404 | 54 | 185 | 0.0 | 0.0 | 0.00 | 0.00 | 0.00 | 88 | 1024.8 |
| 20260905222905 | 54 | 185 | 0.0 | 0.0 | 0.00 | 0.00 | 0.00 | 88 | 1024.8 |
| 20260905222404 | 54 | 185 | 0.0 | 0.0 | 0.00 | 0.00 | 0.00 | 88 | 1024.8 |
| 20260905221904 | 54 | 185 | 0.0 | 0.0 | 0.00 | 0.00 | 0.00 | 88 | 1024.8 |
| 20260905221404 | 55 | 185 | 0.0 | 0.0 | 0.00 | 0.00 | 0.00 | 87 | 1024.9 |
| 20260905220904 | 55 | 185 | 0.0 | 0.0 | 0.00 | 0.00 | 0.00 | 87 | 1024.9 |
| 20260905220404 | 55 | 185 | 0.0 | 0.0 | 0.00 | 0.00 | 0.00 | 87 | 1024.9 |
| 20260905215904 | 55 | 185 | 0.0 | 0.0 | 0.00 | 0.00 | 0.00 | 87 | 1024.9 |
| 20260905215404 | 55 | 185 | 0.0 | 0.0 | 0.00 | 0.00 | 0.00 | 86 | 1024.9 |
| 20260905214905 | 55 | 185 | 0.0 | 0.0 | 0.00 | 0.00 | 0.00 | 86 | 1024.9 |
| 20260905214404 | 55 | 185 | 0.0 | 0.0 | 0.00 | 0.00 | 0.00 | 86 | 1024.9 |
| 20260905213903 | 56 | 185 | 0.0 | 0.0 | 0.00 | 0.00 | 0.00 | 85 | 1024.9 |
| 20260905213404 | 56 | 185 | 0.0 | 0.0 | 0.00 | 0.00 | 0.00 | 85 | 1024.8 |
| 20260905212904 | 56 | 185 | 0.0 | 0.0 | 0.00 | 0.00 | 0.00 | 85 | 1024.8 |
| 20260905212403 | 56 | 185 | 0.0 | 0.0 | 0.00 | 0.00 | 0.00 | 85 | 1024.8 |
| 20260905211904 | 56 | 185 | 0.0 | 0.0 | 0.00 | 0.00 | 0.00 | 85 | 1024.8 |
| 20260905211404 | 56 | 185 | 0.0 | 0.0 | 0.00 | 0.00 | 0.00 | 84 | 1024.8 |
| 20260905210904 | 56 | 185 | 0.0 | 0.0 | 0.00 | 0.00 | 0.00 | 84 | 1024.7 |
| 20260905205903 | 57 | 185 | 0.0 | 0.0 | 0.00 | 0.00 | 0.00 | 84 | 1024.8 |
| 20260905205404 | 57 | 185 | 0.0 | 0.0 | 0.00 | 0.00 | 0.00 | 83 | 1024.8 |
| 20260905204404 | 58 | 185 | 0.0 | 0.0 | 0.00 | 0.00 | 0.00 | 82 | 1025.0 |
| 20260905203904 | 58 | 185 | 0.0 | 2.0 | 0.00 | 0.00 | 0.00 | 81 | 1024.9 |
| 20260905203404 | 58 | 186 | 0.0 | 2.0 | 0.00 | 0.00 | 0.00 | 81 | 1024.9 |
| 20260905202905 | 58 | 186 | 2.0 | 3.0 | 0.00 | 0.00 | 0.00 | 81 | 1024.9 |
| 20260905202404 | 58 | 188 | 1.0 | 3.0 | 0.00 | 0.00 | 0.00 | 80 | 1024.9 |
| 20260905201904 | 58 | 196 | 0.0 | 0.0 | 0.00 | 0.00 | 0.00 | 80 | 1024.9 |
| 20260905201405 | 58 | 196 | 0.0 | 0.0 | 0.00 | 0.00 | 0.00 | 80 | 1024.9 |
| 20260905200904 | 58 | 196 | 0.0 | 3.0 | 0.00 | 0.00 | 0.00 | 80 | 1024.9 |
| 20260905200404 | 58 | 202 | 2.0 | 3.0 | 0.00 | 0.00 | 0.00 | 80 | 1024.9 |
| 20260905195904 | 58 | 217 | 0.0 | 2.0 | 0.00 | 0.00 | 0.00 | 79 | 1024.9 |
| 20260905195404 | 59 | 218 | 0.0 | 3.0 | 0.00 | 0.00 | 0.00 | 79 | 1024.9 |
| 20260905194904 | 58 | 222 | 3.0 | 3.0 | 0.00 | 0.00 | 0.00 | 80 | 1024.9 |
| 20260905194405 | 58 | 205 | 0.0 | 0.0 | 0.00 | 0.00 | 0.00 | 79 | 1024.7 |
| 20260905193904 | 59 | 216 | 0.0 | 0.0 | 0.00 | 0.00 | 0.00 | 78 | 1024.7 |
| 20260905193404 | 59 | 216 | 0.0 | 0.0 | 0.00 | 0.00 | 0.00 | 77 | 1024.7 |
| 20260905192905 | 59 | 216 | 0.0 | 0.0 | 0.00 | 0.00 | 0.00 | 77 | 1024.4 |
| 20260905192404 | 60 | 216 | 0.0 | 0.0 | 0.00 | 0.00 | 0.00 | 76 | 1024.4 |
| 20260905191903 | 60 | 216 | 0.0 | 0.0 | 0.00 | 0.00 | 0.00 | 75 | 1024.4 |
| 20260905191404 | 60 | 216 | 0.0 | 0.0 | 0.00 | 0.00 | 0.00 | 74 | 1024.4 |
| 20260905190905 | 61 | 216 | 0.0 | 0.0 | 0.00 | 0.00 | 0.00 | 73 | 1024.4 |
| 20260905185904 | 62 | 217 | 0.0 | 0.0 | 0.00 | 0.00 | 0.00 | 72 | 1024.4 |
| 20260905185404 | 62 | 227 | 2.0 | 5.0 | 0.00 | 0.00 | 0.00 | 72 | 1024.4 |
| 20260905184904 | 62 | 204 | 2.0 | 5.0 | 0.00 | 0.00 | 0.00 | 72 | 1024.4 |
| 20260905184404 | 62 | 222 | 1.0 | 3.0 | 0.00 | 0.00 | 0.00 | 71 | 1024.5 |
| 20260905183904 | 62 | 226 | 1.0 | 3.0 | 0.00 | 0.00 | 0.00 | 70 | 1024.4 |
| 20260905182904 | 63 | 226 | 1.0 | 3.0 | 0.00 | 0.00 | 0.00 | 69 | 1024.4 |
| 20260905182403 | 63 | 216 | 1.0 | 3.0 | 0.00 | 0.00 | 0.00 | 68 | 1024.4 |
| 20260905181904 | 64 | 219 | 2.0 | 3.0 | 0.00 | 0.00 | 0.00 | 67 | 1024.4 |
| 20260905181405 | 64 | 231 | 1.0 | 6.0 | 0.00 | 0.00 | 0.00 | 67 | 1024.4 |
| 20260905180904 | 64 | 211 | 2.0 | 7.0 | 0.00 | 0.00 | 0.00 | 66 | 1024.4 |
| 20260905180404 | 65 | 202 | 3.0 | 6.0 | 0.00 | 0.00 | 0.00 | 66 | 1024.4 |
| 20260905175904 | 65 | 218 | 3.0 | 8.0 | 0.00 | 0.00 | 0.00 | 65 | 1024.5 |
| 20260905175404 | 65 | 212 | 5.0 | 9.0 | 0.00 | 0.00 | 0.00 | 65 | 1024.5 |
| 20260905174904 | 65 | 252 | 3.0 | 9.0 | 0.00 | 0.00 | 0.00 | 64 | 1024.5 |
| 20260905174404 | 65 | 202 | 5.0 | 12.0 | 0.00 | 0.00 | 0.00 | 64 | 1024.5 |
| 20260905173904 | 66 | 188 | 6.0 | 10.0 | 0.00 | 0.00 | 0.00 | 64 | 1024.5 |
| 20260905173404 | 66 | 204 | 2.0 | 7.0 | 0.00 | 0.00 | 0.00 | 64 | 1024.5 |
| 20260905172904 | 66 | 235 | 5.0 | 8.0 | 0.00 | 0.00 | 0.00 | 63 | 1024.5 |
| 20260905172405 | 66 | 215 | 5.0 | 9.0 | 0.00 | 0.00 | 0.00 | 63 | 1024.4 |
| 20260905171904 | 66 | 194 | 4.0 | 8.0 | 0.00 | 0.00 | 0.00 | 63 | 1024.4 |
| 20260905170904 | 66 | 213 | 5.0 | 10.0 | 0.00 | 0.00 | 0.00 | 62 | 1024.4 |
| 20260905170404 | 67 | 212 | 6.0 | 12.0 | 0.00 | 0.00 | 0.00 | 62 | 1024.4 |
| 20260905165904 | 67 | 217 | 4.0 | 7.0 | 0.00 | 0.00 | 0.00 | 63 | 1024.4 |
| 20260905165404 | 67 | 237 | 4.0 | 8.0 | 0.00 | 0.00 | 0.00 | 62 | 1024.4 |
| 20260905164404 | 67 | 219 | 4.0 | 12.0 | 0.00 | 0.00 | 0.00 | 62 | 1024.4 |
| 20260905163904 | 67 | 215 | 6.0 | 13.0 | 0.00 | 0.00 | 0.00 | 62 | 1024.5 |
| 20260905163404 | 67 | 218 | 4.0 | 12.0 | 0.00 | 0.00 | 0.00 | 62 | 1024.5 |
| 20260905162404 | 68 | 217 | 5.0 | 9.0 | 0.00 | 0.00 | 0.00 | 62 | 1024.5 |
| 20260905161904 | 68 | 203 | 3.0 | 12.0 | 0.00 | 0.00 | 0.00 | 62 | 1024.5 |
| 20260905161404 | 68 | 201 | 7.0 | 12.0 | 0.00 | 0.00 | 0.00 | 61 | 1024.4 |
| 20260905160904 | 68 | 230 | 5.0 | 9.0 | 0.00 | 0.00 | 0.00 | 61 | 1024.5 |
| 20260905160404 | 68 | 207 | 5.0 | 9.0 | 0.00 | 0.00 | 0.00 | 61 | 1024.5 |
| 20260905155904 | 68 | 201 | 5.0 | 9.0 | 0.00 | 0.00 | 0.00 | 61 | 1024.5 |
| 20260905155405 | 68 | 207 | 5.0 | 9.0 | 0.00 | 0.00 | 0.00 | 62 | 1024.7 |
| 20260905154904 | 68 | 190 | 5.0 | 12.0 | 0.00 | 0.00 | 0.00 | 61 | 1024.7 |
| 20260905154403 | 68 | 205 | 6.0 | 12.0 | 0.00 | 0.00 | 0.00 | 61 | 1024.7 |
| 20260905153904 | 68 | 180 | 4.0 | 10.0 | 0.00 | 0.00 | 0.00 | 61 | 1024.7 |
| 20260905152404 | 68 | 226 | 5.0 | 10.0 | 0.00 | 0.00 | 0.00 | 60 | 1024.7 |
| 20260905151904 | 68 | 177 | 4.0 | 9.0 | 0.00 | 0.00 | 0.00 | 60 | 1024.7 |
| 20260905151404 | 69 | 186 | 5.0 | 10.0 | 0.00 | 0.00 | 0.00 | 60 | 1024.8 |
| 20260905150404 | 69 | 243 | 3.0 | 13.0 | 0.00 | 0.00 | 0.00 | 59 | 1024.7 |
| 20260905145904 | 69 | 206 | 8.0 | 13.0 | 0.00 | 0.00 | 0.00 | 58 | 1024.7 |
| 20260905145404 | 69 | 191 | 5.0 | 10.0 | 0.00 | 0.00 | 0.00 | 58 | 1024.7 |
| 20260905144904 | 70 | 222 | 5.0 | 12.0 | 0.00 | 0.00 | 0.00 | 59 | 1024.5 |
| 20260905143404 | 71 | 238 | 5.0 | 8.0 | 0.00 | 0.00 | 0.00 | 57 | 1024.5 |
| 20260905142904 | 71 | 227 | 5.0 | 10.0 | 0.00 | 0.00 | 0.00 | 57 | 1024.5 |
| 20260905142404 | 71 | 163 | 5.0 | 10.0 | 0.00 | 0.00 | 0.00 | 57 | 1024.5 |
| 20260905141904 | 71 | 222 | 4.0 | 8.0 | 0.00 | 0.00 | 0.00 | 55 | 1024.5 |